Weather Roundup
Issued by NWS

Home | Current Version | Previous Version | Graphics & Text | Print | Product List | Glossary Off
Versions: 1 2 3 4 5 6 7 8 9 10 11 12 13 14 15 16 17 18 19 20 21 22 23 24 25 26 27 28 29 30 31 32 33 34 35 36 37 38 39 40 41 42 43 44 45 46 47 48 49 50

000
NZUS93 KARX 171959
HRRWXR

CURRENT HOURLY OBSERVATIONS ACROSS
MUCH OF THE UPPER MISSISSIPPI VALLEY
NATIONAL WEATHER SERVICE LA CROSSE WI
300 PM CDT THU APR 17 2014


...SOUTHEAST MINNESOTA...


CITY           SKY/WX    TMP DP  RH WIND       PRES   REMARKS
ROCHESTER      CLOUDY    35  29  78 NW10      30.27R WCI  27
ROCHESTER/MAYO CLOUDY    35  28  73 W10       30.27S WCI  28
WINONA         CLOUDY    37  32  81 NW9       30.28R WCI  31
AUSTIN         CLOUDY    36  28  75 NW8       30.28R WCI  29
ALBERT LEA     CLOUDY    36  30  80 NW6       30.29R WCI  31
DODGE CENTER   CLOUDY    37  30  75 NW7       30.27R WCI  32
PRESTON        CLOUDY    36  30  80 NW13      30.27R WCI  27
OWATONNA       CLOUDY    36  28  75 W8        30.29R WCI  29
FARIBAULT      CLOUDY    37  28  70 W7        30.29R WCI  32
$$

...ELSEWHERE IN MINNESOTA...


CITY           SKY/WX    TMP DP  RH WIND       PRES   REMARKS
MINNEAPOLIS    PTSUNNY   39  28  64 NW10      30.28S WCI  32
INTNL FALLS    PTSUNNY   37  18  46 NE8       30.27S WCI  31
DULUTH         PTSUNNY   36  23  59 NW13      30.21S WCI  27
RED WING       CLOUDY    37  28  70 NW8       30.27R WCI  31
REDWOOD FALLS  SUNNY     36  27  69 W12       30.31S WCI  28
MANKATO        CLOUDY    36  27  69 W8        30.30R WCI  29
WORTHINGTON    MOSUNNY   37  23  56 NW9       30.31S WCI  31
FAIRMONT       CLOUDY    39  28  65 N9        30.32R WCI  33
$$

...SOUTHWEST WISCONSIN...


CITY           SKY/WX    TMP DP  RH WIND       PRES   REMARKS
LA CROSSE      CLOUDY    43  31  62 NW9       30.25R
PRAIRIE DU CHI CLOUDY    47  33  57 W12       30.24R
BOSCOBEL       PTSUNNY   51  34  52 W6        30.22R
LONE ROCK      NOT AVBL
PLATTEVILLE    MOSUNNY   52  36  55 W8G18     30.22R
FORT MC COY    CLOUDY    42  33  68 NW9       30.24R
VIROQUA        CLOUDY    44  35  68 W9G17     30.22R
WIS DELLS      PTSUNNY   51  37  60 W13       30.18R
$$

...ELSEWHERE IN WISCONSIN...


CITY           SKY/WX    TMP DP  RH WIND       PRES   REMARKS
MILWAUKEE      PTSUNNY   53  38  56 W12G17    30.20R
MADISON        PTSUNNY   53  36  52 W8        30.19R
GREEN BAY      CLOUDY    51  38  60 NW10      30.15R
EAU CLAIRE     NOT AVBL
BLACK RVR FLS  CLOUDY    41  32  70 W8        30.23R
MEDFORD        CLOUDY    35  32  88 W9        30.18R WCI  28
WAUSAU         CLOUDY    40  33  76 NW13      30.17R WCI  32
WIS RAPIDS     CLOUDY    43  35  73 NW12      30.21R
MARSHFIELD     CLOUDY    39  33  79 NW12      30.19R WCI  32
RICE LAKE      CLOUDY    35  28  78 NW7       30.24R WCI  29
$$

...NORTHEAST IOWA...


CITY           SKY/WX    TMP DP  RH WIND       PRES   REMARKS
WATERLOO       MOSUNNY   47  31  53 N8        30.26S
DUBUQUE        MOSUNNY   52  37  56 W13G21    30.21S
DECORAH        CLOUDY    41  32  70 NW9       30.24S
MASON CITY     CLOUDY    38  29  70 NW13      30.29F WCI  30
CHARLES CITY   CLOUDY    37  32  81 NW13      30.28S WCI  29
OELWEIN        CLOUDY   N/A N/A N/A NW13      30.25S
$$

...ELSEWHERE IN IOWA...


CITY           SKY/WX    TMP DP  RH WIND       PRES   REMARKS
DES MOINES     PTSUNNY   51  30  44 N10       30.28S
IOWA CITY      MOSUNNY   50  35  56 NW12      30.27S
FORT DODGE     SUNNY     48  28  46 N8        30.28F
MARSHALLTOWN   SUNNY     45  33  63 NW12      30.27S
CEDAR RAPIDS   MOSUNNY   47  33  58 NW12      30.24F
$$

...NORTHERN ILLINOIS...


CITY           SKY/WX    TMP DP  RH WIND       PRES   REMARKS
CHICAGO-OHARE  PTSUNNY   60  37  42 W14G22    30.19R
DUPAGE         MOSUNNY   60  39  45 SW15      30.19S
CHICAGO-MIDWAY PTSUNNY   61  39  44 SW15      30.20R
MOLINE         MOSUNNY   54  36  50 W5        30.24S
ROCKFORD       CLOUDY    57  38  48 W9        30.23R
STERLING       MOSUNNY   57  39  51 W8G16     30.22S
PEORIA         MOSUNNY   57  38  48 W7        30.24S
$$

NOTE: "FAIR" INDICATES FEW OR NO CLOUDS BELOW 12,000 FEET WITH NO
SIGNIFICANT WEATHER AND/OR OBSTRUCTIONS TO VISIBILITY. WIND
SPEEDS ARE IN MILES-PER-HOUR.



USA.gov is the U.S. government's official web portal to all federal, state and local government web resources and services.